Location: Newark
(47.5000°N, 4.6167°E)
Time: 05:59:05
(UTC+00:00)

ISS - Pass Details

Date: 16 May 2021
Orbit: 419 x 422 km, 51.6° (Epoch: 24 June)

Event Time Altitude Azimuth Distance (km) Brightness Sun altitude
Rises 22:29:45 0° 273° (W) 2,416 0.4 -21.4°
Maximum altitude 22:35:17 42° 353° (N) 640 -2.4 -21.7°
Drops below altitude 10° 22:38:40 10° 66° (ENE) 1,569 -0.8 -21.9°
Sets 22:40:53 0° 74° (ENE) 2,444 0.2 -22.0°
